Weather History for Wakefield, VA

Change the Weather History Date:

Monday, December 19, 2011

  Actual Average (KJGG) Record (KJGG)
Temperature  
Mean Temperature 40 °F -  
Max Temperature 54 °F 50 °F 70 °F (1990)
Min Temperature 26 °F 28 °F 13 °F (1953)
Degree Days  
Heating Degree Days 25    
Moisture  
Dew Point 26 °F    
Average Humidity 59    
Maximum Humidity 89    
Minimum Humidity 35    
Precipitation  
Precipitation 0.00 in - - ()
Sea Level Pressure  
Sea Level Pressure 30.27 in    
Wind  
Wind Speed 3 mph (SW)    
Max Wind Speed 10 mph    
Max Gust Speed 21 mph    
Visibility 9 miles    
Events      
Averages and records for this station are not official NWS values.
T = Trace of Precipitation, MM = Missing Value Source: NWS Daily Summary

Daily Weather History Graph

Daily Weather History Graph

Search for Another Location

Airport:

Trip Planner

Search our weather history database for the weather conditions in past years. The results will help you decide how hot, cold, wet, or windy it might be!

Date:

Astronomy

Dec. 19, 2011 Rise Set
Actual Time 7:16 AM EST 4:53 PM EST
Civil Twilight 6:47 AM EST 5:22 PM EST
Nautical Twilight 6:14 AM EST 5:55 PM EST
Astronomical Twilight 5:43 AM EST 6:27 PM EST
Moon 1:29 AM EST (12/19) 12:46 PM EST (12/19)
Length of Visible Light 10h 35m
Length of Day
9h 37m
Waning Crescent, 31% of the Moon is Illuminated
Dec 19
Waning Crescent
Dec 24
New
Jan 1
First Quarter
Jan 9
Full
Jan 16
Last Quarter

Hourly Weather History & Observations

Time (EST) Temp. Windchill Dew Point Humidity Pressure Visibility Wind Dir Wind Speed Gust Speed Precip Events Conditions
12:54 AM 27.0 °F - 24.1 °F 89% 30.35 in 6.0 mi Calm Calm - N/A   Clear
1:54 AM 26.1 °F - 23.0 °F 88% 30.34 in 5.0 mi Calm Calm - N/A   Clear
2:54 AM 26.1 °F - 23.0 °F 88% 30.35 in 7.0 mi Calm Calm - N/A   Clear
3:54 AM 26.1 °F - 21.9 °F 84% 30.35 in 7.0 mi Calm Calm - N/A   Clear
4:54 AM 26.1 °F - 21.9 °F 84% 30.34 in 5.0 mi Calm Calm - N/A   Clear
5:54 AM 26.1 °F - 23.0 °F 88% 30.34 in 6.0 mi Calm Calm - N/A   Clear
6:54 AM 28.0 °F - 24.1 °F 85% 30.35 in 7.0 mi Calm Calm - N/A   Clear
7:54 AM 30.0 °F - 25.0 °F 82% 30.35 in 7.0 mi Calm Calm - N/A   Clear
8:54 AM 36.0 °F 32.1 °F 28.0 °F 73% 30.35 in 8.0 mi SW 4.6 mph - N/A   Clear
9:54 AM 39.9 °F 33.9 °F 27.0 °F 60% 30.35 in 10.0 mi SSW 9.2 mph 17.3 mph N/A   Clear
10:54 AM 46.0 °F 41.9 °F 27.0 °F 47% 30.33 in 10.0 mi SSW 8.1 mph - N/A   Clear
11:54 AM 50.0 °F - 26.1 °F 39% 30.29 in 10.0 mi SW 9.2 mph 17.3 mph N/A   Clear
12:54 PM 52.0 °F - 27.0 °F 38% 30.25 in 10.0 mi SW 9.2 mph 18.4 mph N/A   Clear
1:54 PM 53.1 °F - 26.1 °F 35% 30.22 in 10.0 mi SW 10.4 mph 20.7 mph N/A   Clear
2:54 PM 54.0 °F - 28.0 °F 37% 30.19 in 10.0 mi SW 9.2 mph - N/A   Clear
3:54 PM 54.0 °F - 27.0 °F 35% 30.19 in 10.0 mi SW 6.9 mph - N/A   Clear
4:54 PM 51.1 °F - 28.0 °F 41% 30.20 in 10.0 mi SW 5.8 mph - N/A   Clear
5:54 PM 48.0 °F - 28.9 °F 48% 30.20 in 10.0 mi SSW 3.5 mph - N/A   Clear
6:54 PM 46.9 °F - 28.9 °F 50% 30.21 in 10.0 mi SW 3.5 mph - N/A   Clear
7:54 PM 48.0 °F - 28.9 °F 48% 30.20 in 10.0 mi Variable 5.8 mph - N/A   Clear
8:54 PM 48.0 °F - 28.0 °F 46% 30.19 in 10.0 mi SW 6.9 mph - N/A   Clear
9:54 PM 48.0 °F - 27.0 °F 44% 30.18 in 10.0 mi SW 5.8 mph - N/A   Clear
10:54 PM 48.0 °F - 27.0 °F 44% 30.17 in 10.0 mi SW 6.9 mph - N/A   Clear
11:54 PM 46.9 °F - 27.0 °F 46% 30.17 in 10.0 mi SW 4.6 mph - N/A   Clear